Weather Roundup
Issued by NWS Corpus Christi, TX

Home | Current Version | Previous Version | Text Only | Print | Product List | Glossary On
Versions: 1 2 3 4 5 6 7 8 9 10 11 12 13 14 15 16 17 18 19 20 21 22 23 24 25 26 27 28 29 30 31 32 33 34 35 36 37 38 39 40 41 42 43 44 45 46 47 48 49 50
000
ASUS44 KCRP 250610
HRRCRP

SOUTH TEXAS REGIONAL WEATHER ROUNDUP
NATIONAL WEATHER SERVICE CORPUS CHRISTI TX
1200 AM CST THU DEC 25 2014


TXZ229>244-250700-
...CORPUS CHRISTI AREA OBSERVATIONS...

CITY           SKY/WX    TMP DP  RH WIND       PRES   REMARKS
CORPUS CHRISTI CLEAR     38  30  73 S7        30.16F
NAS CORPUS CHR CLEAR     43  33  68 S7        30.16F
ROCKPORT       CLEAR     41  32  70 SW5       30.16F
KINGSVILLE NAS CLEAR     38  34  85 S6        30.17F
ALICE          CLEAR     43  32  65 SW5       30.14F
FALFURRIAS     CLEAR     38  30  74 E7        30.14F
$$

...VICTORIA AREA OBSERVATIONS...

CITY           SKY/WX    TMP DP  RH WIND       PRES   REMARKS
VICTORIA       CLEAR     43  35  73 SW8       30.15S
BEEVILLE       FAIR      44  35  70 SW5       30.14F
PLEASANTON     FLURRIES  36  30  78 CALM      30.14R
SAN ANTONIO    CLEAR     38  29  70 NW5       30.11S
$$

...LAREDO AREA OBSERVATIONS...

CITY           SKY/WX    TMP DP  RH WIND       PRES   REMARKS
LAREDO         CLEAR     43  28  56 S7        30.16S
COTULLA        PTCLDY    38  24  57 S7        30.14R
DEL RIO        CLEAR     36  27  69 CALM      30.08S
MCALLEN        CLEAR     38  34  85 SE6       30.20S
HEBBRONVILLE   CLEAR     38  27  65 S5        30.14S
$$

...OTHER TEXAS OBSERVATIONS...

CITY           SKY/WX    TMP DP  RH WIND       PRES   REMARKS
BROWNSVILLE    CLEAR     43  37  79 S3        30.20F
HOUSTON        CLEAR     38  36  92 CALM      30.12F
COL. STATION   CLEAR     37  32  82 CALM      30.09F
AUSTIN         CLEAR     30  28  92 W3        30.10F
WACO           CLEAR     33  29  85 SW7       30.06F
FORT WORTH     CLEAR     36  28  73 S7        30.00F
WICHITA FALLS  CLEAR     37  26  64 S12       29.92F WCI  29
LUBBOCK        CLEAR     37  23  56 SW14      29.84F WCI  28
EL PASO        MOCLDY    38   9  30 SW3       29.96F
$$

...MARINE OBSERVATIONS...

STATION/POSITION TIME  SKY/WX   TEMP    WIND        PRES    VSBY  WAVE   SWELL
                                AIR SEA DIR/SP/G                  HT/PER HT/PER
                 (UTC)          (F)     (DEG/KT/KT) (MB)    (MI)  (FT/S) (FT/S)
PORT ARANSAS     0600            54 60  220/  6/  7 1021.6F
BUOY 90 E PORT A 0600            58 71  290/  6/ 10 1021.9R         2/ 4   2/ 4
BUOY 45 SE BAFFI 0600            60 72  290/  8/ 10 1021.4F         2/ 4   2/ 4
BUOY 200 E PT IS 0600            61 74  350/ 10/ 14 1021.6F         6/ 8   5/ 8
BUOY 15 E GALVES 0600            54 60  290/  4/  6 1020.5F         2/ 5   2/ 5
$$


USA.gov is the U.S. government's official web portal to all federal, state and local government web resources and services.